Location: Baghd?d
(30.5667°N, 72.1667°E)
Time: 13:34:28
(UTC+00:00)

Daily predictions for brighter satellites

Satellite Brightness Start Highest point End
(mag) Time Altitude Azimuth Time Altitude Azimuth Time Altitude Azimuth
CENTAUR R/B 3.6 13:52:19 10° NNW 14:00:54 74° WSW 14:09:46 10° SSE
FALCON 9 R/B 3.7 13:55:53 10° WNW 14:01:26 71° N 14:22:59 10° E
Meteor 2-13 Rocket 4.5 13:59:10 10° N 14:05:18 78° E 14:11:25 10° S
Okean O Rocket 4.4 14:03:24 10° SSW 14:06:46 21° W 14:10:11 10° NW
SL-08 RB Rocket 4.1 14:04:03 10° SSE 14:08:29 46° ENE 14:12:54 10° N
ATLAS 3B R/B 4.0 14:05:27 10° N 14:11:07 25° NE 14:16:55 10° ESE
Cosmos 1892 3.4 14:08:26 10° NNE 14:11:54 33° E 14:15:22 10° SSE
Cosmos 2034 Rocket 4.1 14:06:15 10° S 14:12:27 87° W 14:18:44 10° N
Cosmos 1758 Rocket 3.7 14:08:00 10° N 14:12:29 83° W 14:16:59 10° S
YAOGAN 1 2.6 14:08:51 10° S 14:13:10 85° WSW 14:17:30 10° NNW
Atlas Centaur 2 4.1 14:07:02 10° W 14:13:41 34° SSW 14:21:04 10° SE
Cosmos 2333 Rocket 2.9 14:08:30 10° N 14:13:48 37° ENE 14:19:02 10° SE
Cosmos 1825 4.0 14:11:45 10° NE 14:13:55 15° ENE 14:16:06 10° ESE
Nadezhda 4 Rocket 4.0 14:08:19 10° N 14:14:32 63° E 14:20:38 10° SSE
CSL-04 Rocket 3.9 14:11:01 10° SE 14:16:05 48° ENE 14:21:08 10° N
Cosmos 2058 4.5 14:16:30 10° NNE 14:19:21 18° ENE 14:21:56 11° ESE
Cosmos 2322 4.1 14:15:31 10° N 14:20:56 45° ENE 14:26:19 10° SE
CZ-2C R/B 3.1 14:16:05 10° N 14:21:16 67° WNW 14:26:33 10° SSW
Cosmos 405 2.9 14:17:54 10° S 14:21:21 89° W 14:24:49 10° N
Cosmos 2251 Rocket 3.5 14:16:12 10° S 14:21:32 71° ESE 14:26:51 10° NNE
Cosmos 614 Rocket 4.2 14:16:52 10° S 14:21:47 48° ESE 14:26:41 10° NNE
FALCON 9 DEB 2.9 14:22:42 10° SW 14:25:44 82° NW 14:28:47 10° NE
SJ-6B 4.2 14:25:47 13° ESE 14:27:52 20° ENE 14:30:36 10° NNE
Cosmos 2084 Rocket 4.0 14:24:23 10° S 14:27:53 30° ESE 14:31:24 10° NE
Cosmos 1302 Rocket 4.3 14:25:08 10° NNW 14:30:24 72° WSW 14:35:37 10° S
FALCON 9 DEB 3.8 14:27:44 10° WSW 14:30:41 50° NW 14:33:38 10° NNE
COSMOS 2455 4.2 14:29:43 10° SE 14:33:18 16° ESE 14:36:53 10° ENE
Cosmos 389 Rocket 3.4 14:34:13 11° SSE 14:37:03 27° E 14:40:04 10° NE
Cosmos 2360 Rocket 3.0 14:31:50 10° NNW 14:37:18 52° WSW 14:42:44 10° S
Meteor 2-10 Rocket 4.4 14:34:19 10° SSW 14:39:22 54° W 14:44:40 10° N
ERS-2 3.1 14:40:19 10° N 14:43:51 50° WNW 14:47:21 10° SSW
Cosmos 1634 Rocket 3.9 14:37:48 10° S 14:44:04 74° E 14:50:18 10° N
Cosmos 1992 Rocket 4.0 14:42:44 10° N 14:47:53 61° ENE 14:52:04 15° SSE
Meteor 2-1 Rocket 4.2 14:43:11 10° S 14:48:57 77° E 14:54:52 10° N
Cosmos 2219 Rocket 2.2 14:46:12 10° NNW 14:51:52 70° ENE 14:56:21 16° SSE
COSMOS 2428 2.8 14:49:31 10° NNW 14:55:12 61° ENE 14:59:04 21° SE
Cosmos 2333 4.5 14:50:07 10° NNW 14:55:50 71° WSW 15:01:28 10° S
Cosmos 1455 3.5 14:54:21 10° SSW 14:57:53 41° W 15:01:26 10° N
BREEZE-M DEB (TANK) 2.6 14:56:28 10° NNW 14:58:59 48° NE 15:00:38 29° ESE
SL-4 R/B 3.3 14:56:29 10° WSW 15:00:29 44° NW 15:04:47 10° NNE
Cosmos 407 Rocket 3.4 14:56:15 10° S 15:01:15 60° ESE 15:06:19 10° NNE
CZ-4 R/B 4.3 14:58:35 10° SW 15:01:19 17° W 15:04:03 10° NW
Palapa 6 Rocket 3.9 14:59:00 10° SW 15:02:22 25° S 15:02:53 24° SSE
Exosat Rocket 3.8 14:58:41 10° N 15:04:04 49° ENE 15:06:11 30° SE
Timation 2 Rocket 4.1 14:59:58 10° S 15:06:32 59° ESE 15:12:51 10° NNE
Cosmos 1023 Rocket 4.4 15:02:01 10° S 15:07:01 61° ESE 15:12:01 10° NNE
Centaur AC-119 4.3 15:07:10 10° SSW 15:07:41 11° SSW 15:07:41 11° SSW
NOSS 0 Rocket 4.3 15:04:10 10° N 15:10:07 45° ENE 15:12:33 31° ESE
Cosmos 1076 Rocket 4.0 15:07:03 10° NNE 15:11:04 37° E 15:11:18 37° E
USA 186 2.7 15:11:43 19° SSW 15:13:48 49° W 15:16:58 10° NNW
IRIDIUM 114 4.4 15:11:23 27° SSE 15:14:01 53° E 15:19:05 10° NNE
Cosmos 1140 Rocket 3.3 15:10:01 10° S 15:15:06 72° ESE 15:20:12 10° NNE
OBJECT-B 0.7 15:14:37 58° S 15:15:10 84° W 15:18:24 10° NNW
Cosmos 44 Rocket 4.1 15:18:30 34° E 15:18:30 34° E 15:22:03 10° NE
IRIDIUM 103 4.2 15:20:31 29° SSE 15:23:08 67° E 15:28:18 10° N
Cosmos 2237 Rocket 2.8 15:19:25 10° N 15:24:34 36° ENE 15:25:14 34° E
Cosmos 1812 Rocket 3.4 15:23:29 27° S 15:25:52 88° E 15:30:19 10° N
Cosmos 1356 3.8 15:25:25 10° N 15:28:10 54° N 15:28:10 54° N
Cosmos 2227 Rocket 2.1 15:25:27 10° SSW 15:31:07 88° WNW 15:36:48 10° NNE
Cosmos 2082 4.2 15:32:16 39° ENE 15:32:16 39° ENE 15:36:28 10° NE
Cosmos 1655 Rocket 4.3 15:29:33 10° N 15:35:29 44° E 15:36:00 43° E
BREEZE M DEB (TANK) 3.8 15:33:06 10° WSW 15:35:49 48° NNW 15:42:05 10° NE
Cosmos 405 Rocket 2.7 15:32:08 10° N 15:36:04 78° W 15:36:06 78° WSW
Cosmos 192 4.3 15:32:53 10° N 15:37:48 64° ENE 15:38:00 63° E
Cosmos 2297 Rocket 2.8 15:32:20 10° SSW 15:37:50 56° WNW 15:43:24 10° N
Cosmos 1809 Rocket 4.4 15:32:05 10° N 15:38:10 66° E 15:39:38 50° SE
FUSE 4.4 15:33:41 10° WSW 15:38:41 42° S 15:38:44 42° S
ATLAS 5 CENTAUR R/B 2.6 15:36:36 10° NNW 15:37:56 37° NNW 15:37:56 37° NNW
Hubble Space Telescope 1.2 15:35:10 10° WSW 15:38:31 52° SW 15:38:31 52° SW
IRIDIUM 106 4.3 15:38:49 31° S 15:41:23 78° W 15:46:37 10° N
Cosmos 2219 3.9 15:41:20 10° SW 15:46:46 52° WNW 15:52:14 10° N
Cosmos 1825 4.4 15:46:19 10° NW 15:49:19 23° W 15:51:05 16° SW
Resurs 01 Rocket 2.2 15:53:29 51° NNE 15:53:29 51° NNE 15:56:56 10° N
Meteor 2-14 Rocket 4.3 15:46:26 10° N 15:52:30 71° E 15:53:03 67° ESE
Resurs 1-3 4.0 15:54:28 57° WSW 15:54:36 57° W 15:58:55 10° NNW
Cosmos 2333 Rocket 4.2 15:53:22 10° NW 15:57:44 23° W 16:01:53 11° SSW
Ariane Rocket 3.7 15:57:59 39° SW 15:59:19 48° W 16:04:12 10° NNW
ATLAS 3B R/B 3.1 15:55:07 10° NW 16:02:10 61° WSW 16:04:35 42° S
Meteor 2-21 Rocket 4.4 16:12:19 10° N 16:17:57 78° N 16:17:57 78° N
SPOT 3 Rocket 4.0 16:19:22 60° NW 16:19:22 60° NW 16:23:47 10° NNW
COSMOS 2455 3.3 16:12:46 10° SW 16:18:39 57° WNW 16:24:34 10° NNE
Cosmos 1980 4.0 16:15:11 10° NNW 16:20:27 61° W 16:20:27 61° W
SL-16 R/B 3.5 16:16:17 10° N 16:19:39 29° NNE 16:19:39 29° NNE
Cosmos 2266 Rocket 4.2 16:27:30 10° NNW 16:33:24 66° WNW 16:33:24 66° WNW
Cosmos 2237 Rocket 4.2 17:04:00 10° NW 17:07:05 21° W 17:07:05 21° W
SL-16 R/B 4.0 21:06:18 30° N 21:06:18 30° N 21:09:17 10° N
CZ-4C R/B 3.9 20:58:12 10° NNW 21:05:35 47° ENE 21:13:45 10° SE
CZ-2D R/B 4.3 21:09:01 10° N 21:10:42 20° N 21:10:42 20° N
Cosmos 2082 Rocket 4.2 21:12:44 10° NNW 21:14:25 20° N 21:14:25 20° N
ADEOS II 3.9 21:17:10 10° NNE 21:19:30 27° NNE 21:19:30 27° NNE
Cosmos 1943 Rocket 3.4 21:28:55 38° NNE 21:28:55 38° NNE 21:32:18 10° NNE
Cosmos 1934 Rocket 4.4 21:33:27 10° N 21:39:18 57° ENE 21:39:18 57° ENE
IDEFIX/ARIANE 42P 3.6 21:37:08 10° NNE 21:40:44 42° NE 21:40:44 42° NE
SL-4 R/B 4.1 21:46:50 30° ENE 21:46:50 30° ENE 21:50:06 10° ESE
USA 234 3.6 21:39:43 10° NNE 21:45:38 52° NNW 21:45:38 52° NNW
Cosmos 2369 Rocket 2.4 21:59:29 65° NE 21:59:29 65° NE 22:04:17 10° NNE
MSX 3.9 21:55:45 10° NNE 22:01:31 69° ESE 22:01:33 69° ESE
Cosmos 489 Rocket 4.4 21:58:00 10° NNW 22:04:14 81° ENE 22:04:49 73° SE
Cosmos 1605 Rocket 4.3 22:00:48 10° N 22:06:52 60° E 22:09:31 34° SSE
Meteor 1-15 Rocket 4.3 22:07:50 10° N 22:13:24 70° E 22:14:38 53° SE
Meteor 1-23 Rocket 4.3 22:15:26 64° NW 22:15:26 64° NW 22:20:32 10° N
IRS-1C 4.2 22:14:12 10° N 22:18:59 64° NW 22:18:59 64° NW
Cosmos 1378 Rocket 3.9 22:23:36 60° E 22:23:36 60° E 22:27:53 10° NNE
Cosmos 1656 Rocket 3.5 22:26:57 72° S 22:27:30 85° ESE 22:32:57 10° NNE
Cosmos 1674 Rocket 3.6 22:39:07 62° NW 22:39:07 62° NW 22:42:58 10° N
Cosmos 1727 Rocket 3.9 22:39:53 42° SSW 22:42:05 75° W 22:48:21 10° N
SL-08 R/B 3.3 22:40:15 31° SSE 22:42:39 90° NW 22:47:31 10° NNW
BREEZE-M DEB (TANK) 2.9 22:42:18 56° SW 22:43:24 90° SSE 22:55:17 10° NE
CZ-2C R/B 3.3 22:39:55 10° NNE 22:43:42 56° E 22:44:33 44° SSE
ARIANE 5 R/B 2.8 22:39:57 10° N 22:44:57 48° WNW 22:45:13 47° W
Okean 2 3.3 22:47:08 71° S 22:47:34 90° W 22:51:44 10° N
NOSS 3-4 (A) 3.9 22:40:23 10° NW 22:47:44 66° WSW 22:55:46 10° SSE
NOSS 3-4 (C) 3.9 22:40:30 10° NW 22:47:51 67° WSW 22:55:54 10° SSE
PAYLOAD A 3.8 22:47:46 10° NNE 22:52:46 85° ESE 22:55:01 32° S
Cosmos 1766 3.9 22:50:18 10° NNW 22:53:13 40° NW 22:53:13 40° NW
CZ-4C R/B 3.5 22:47:01 10° NW 22:54:11 37° WSW 23:01:52 10° S
Milstar 3 3.2 22:51:12 32° W 22:55:00 75° S 23:06:32 10° ESE
ADEOS Rocket 3.6 22:54:48 36° WSW 22:55:26 37° W 23:01:42 10° NNW
Meteor 1-22 Rocket 4.2 22:50:10 10° N 22:55:55 89° W 23:01:53 10° S
ATLAS CENTAUR R/B 3.6 22:56:08 10° SSE 22:58:40 18° ESE 23:01:12 10° ENE
Spot 4 Rocket 4.1 22:56:11 10° N 23:01:13 56° WNW 23:03:02 36° SW
ATLAS 2AS CENTAUR R/B 2.6 22:54:50 10° NNW 23:01:57 87° WSW 23:08:30 10° SSE
Cosmos 1461 3.3 23:06:54 39° WSW 23:08:23 57° WNW 23:13:02 10° NNE
CZ-2D R/B 4.4 23:05:09 10° NNW 23:08:50 30° WNW 23:08:57 30° WNW
Delta 168 4.5 23:05:56 27° WSW 23:09:58 47° SSW 23:15:36 10° ESE
Cosmos 1867 3.5 23:07:35 27° SSW 23:10:37 86° WNW 23:16:06 10° NNE
Cosmos 1943 Rocket 4.2 23:10:27 11° WNW 23:10:59 11° WNW 23:12:41 10° NW
PSLV R/B 3.6 23:08:30 10° NNE 23:12:42 76° ESE 23:16:16 14° S
Delta 2 Rocket 4.2 23:10:40 30° WSW 23:13:05 43° SSW 23:18:45 10° SE
Cosmos 1125 Rocket 4.3 23:12:32 28° W 23:13:50 32° WNW 23:18:33 10° N
Cosmos 1000 Rocket 4.5 23:08:22 13° SSW 23:14:07 73° W 23:20:27 10° N
ASTRO E2 2.5 23:16:42 32° W 23:18:24 82° S 23:22:21 10° ESE
Cosmos 1726 2.3 23:15:34 10° N 23:19:17 74° E 23:22:58 10° S
GP-B 3.0 23:16:07 10° N 23:20:32 70° W 23:24:55 10° S
Cosmos 1470 2.6 23:16:53 10° N 23:20:44 83° W 23:24:36 10° S
IDEFIX/ARIANE 42P 4.5 23:19:08 10° NW 23:21:18 13° WNW 23:21:34 13° WNW
Cosmos 1707 2.8 23:19:49 27° SSW 23:21:42 55° W 23:25:29 10° N
ALOS 2.2 23:19:53 10° NNE 23:24:34 88° ESE 23:29:13 10° SSW
IRAS Rocket 4.1 23:19:28 10° SSE 23:24:57 84° WSW 23:30:30 10° NNW
SL-4 R/B 3.0 23:22:39 18° WNW 23:25:27 33° SW 23:29:36 10° S
GPS 2-04 Rocket1 2.2 23:26:36 32° SW 23:28:00 73° SSE 23:31:22 10° ENE
Cosmos 1975 Rocket 3.0 23:25:40 10° S 23:30:07 81° W 23:34:34 10° N
Chunghua 1 4.4 23:31:19 25° WSW 23:33:19 83° NNW 23:37:02 10° ENE
KORONAS-FOTON 4.1 23:31:46 10° S 23:35:34 69° E 23:39:25 10° NNE
Cosmos 1025 Rocket 3.6 23:36:16 10° S 23:40:26 58° E 23:44:38 10° NNE
CZ-2C R/B 3.3 23:36:53 10° N 23:41:10 31° WNW 23:44:49 14° SW
Delta 2 Rocket 3.2 23:39:34 19° SW 23:41:54 64° SSE 23:45:45 10° ENE
Cosmos 2369 Rocket 4.1 23:41:37 10° WNW 23:43:17 11° NW 23:44:58 10° NW
CZ-4C R/B 4.4 23:40:21 10° SSE 23:43:41 43° ENE 23:46:58 10° N
Cosmos 1400 Rocket 3.3 23:40:11 10° NNW 23:44:02 39° W 23:47:51 10° SSW
Cosmos 44 3.4 23:39:11 10° NNW 23:44:33 81° WSW 23:49:38 10° SSE
Cosmos 1802 Rocket 3.9 23:40:32 10° N 23:46:42 72° W 23:52:47 10° S
RESURS DK-1 3.9 23:45:33 10° N 23:49:29 40° ENE 23:53:23 10° SE
Cosmos 1833 4.2 23:45:30 10° NNW 23:51:14 74° WSW 23:56:57 10° SSE
DELTA 2 R/B (1) 3.8 23:46:01 10° WNW 23:51:35 74° NNE 23:57:09 10° ESE
Okean 1 Rocket 4.1 23:48:04 10° NNW 23:51:46 26° W 23:55:25 10° SW
ISS -3.6 23:50:07 11° SW 23:53:16 74° SE 23:56:38 10° NE
In-Cosmos 22 4.5 23:48:06 10° SSW 23:53:40 50° W 23:59:14 10° N
